Время (UTC), дата Ветер
(°,м/с) 
Видим.   Явления Облачность Т
(°С)
Тd
(°С)
f(%) Тe
(°С)
Pmin
(гПа)
dP
(гПа)
Po
(мм)
O2
(г/м3)
Тmin Tmax R s Состояние
почвы
00 01.01.10 280 (З) >10 км    6/0 средняя 
[Ac trans]
+4.8 -1.8 62 +4  1005.4  -2.1  714  283           
03 01.01.10 140 (ЮВ) >10 км    8/0 средняя 
[Ac trans]
+2.4 -0 84 1006.1  0.2  714  285           
06 01.01.10 230 (ЮЗ) >10 км  слаб. ливневой дождь  10/8 1000 м кучево-дожд., средняя 
[Cb cap|Ac und]
+6.4 +2.2 74 +5  1005.4  0.1  714  281  +1.4         
09 01.01.10 150 (ЮВ) >10 км  слаб. ливневой дождь  10/8 1000 м кучево-дожд., средняя 
[Cb cap|Ac und]
+5.9 +3.3 83 +6  1005.5  714  281           
12 01.01.10 160 (Ю) >10 км  {ливн. осадки}  10/8 1000 м кучево-дожд., средняя 
[Cb calv|Ac und]
+8.6 +6.2 85 +8  1004.7  -0.3  714  278           
15 01.01.10 130 (ЮВ) >10 км    10/8 1000 м кучево-дожд., средняя 
[Cb calv|Ac und]
+6.1 +4.5 89 +5  1004.6  -0.5  713  280           
18 01.01.10 110 (В) >10 км    9/3 1000 м кучево-дожд., средняя 
[Cb calv|Ac trans]
+6.5 +3.2 79 +5  1002.9  -1.5  712  280    +8.7     
21 01.01.10 150 (ЮВ) >10 км  слаб. ливневой дождь  10/6 1000 м кучево-дожд., средняя 
[Cb cap|Ac und]
+6.2 +3.6 83 +4  1001.3  -1.6  711  279           
00 02.01.10 150 (ЮВ) >10 км  в посл. час ливневой дождь  8/3 1000 м кучево-дожд., средняя 
[Cb calv|Ac trans]
+6.7 -0.6 60 +5  1000.8  -0.4  711  279           
03 02.01.10 140 (ЮВ) >10 км    5/1 1000 м средняя 
[Sc diur, vesp|Ac trans]
+5 +0 70 +3  1000.4  -0.8  710  281           
06 02.01.10 200 (Ю) >10 км    8/3 1000 м средняя 
[Sc|Ac trans]
+9.9 -0.5 48 +9  999.6  0.2  725  282  +4.8       
09 02.01.10 200 (Ю) >10 км    10/5 600 м кучево-дожд., средняя 
[Cb calv|Ac und]
+12 +3.2 55 +10  998.8  -0.3  710  273           
12 02.01.10 230 (ЮЗ) >10 км  в посл. час ливневой дождь  10/4 600 м кучево-дожд., средняя 
[Cb cap|Ac und]
+9.8 +6.5 80 +9  998.8  -0.3  710  275           
15 02.01.10 150 (ЮВ) >10 км    10/5 600 м кучево-дожд., средняя 
[Cb calv|Ac und]
+8.1 +5.6 84 +7  998.2  -1  709  276           
18 02.01.10 140 (ЮВ) >10 км    4/3 1000 м средняя 
[Sc diur, vesp|Ac trans]
+7.7 +1.3 64 +6  996.7  -1.5  708  277    +12.7  0.6     
21 02.01.10 240 (ЮЗ) >10 км  слаб. ливневой дождь  10/6 800 м кучево-дожд., средняя 
[Cb cap|Ac und]
+9.2 +2.3 62 +8  995.5  -0.9             
00 03.01.10 260 (З) >10 км  слаб. ливневой дождь  10/8 750 м кучево-дожд., средняя 
[Cb cap|Ac und]
+7.7 +5.8 88 +6  997.2  1.4  708  276           
03 03.01.10 270 (З) 10  >10 км  слаб. ливневой дождь  6/4 600 м кучево-дожд., средняя 
[Cb cap|Ac trans]
+7.1 +3.2 76 +4  996.6  -0.7  708  277           
06 03.01.10 240 (ЮЗ) >10 км  {ливн. осадки}  6/4 600 м кучево-дожд., средняя 
[Cb calv|Ac trans]
+7.2 +2.9 74 +6    0.2  708  277  +6.8       
09 03.01.10 290 (З) >10 км  {ливн. осадки}  10/6 420 м кучево-дожд., средняя 
[Cb calv|Ac und]
+4.2 +1.1 80 +2  1000.1  2.6  710  281           
12 03.01.10 290 (З) >10 км  {ливн. осадки}  10/6 210 м кучево-дожд., средняя 
[Cb calv|Ac und]
+1.5 +0.1 90 -2  1003.1  2.2  711  285           
15 03.01.10 290 (З) 10  >10 км    10/6 400 м кучево-дожд., средняя 
[Cb calv|Ac und]
+0.3 -2.1 84 -4  1005.3  1.9  713  287           
18 03.01.10 270 (З) >10 км    10/8 240 м кучево-дожд., средняя 
[Cb calv|Ac und]
-1.2 -2.7 90 -4  1007.9  2.2  715  289    +7.3  0.0     
21 03.01.10 310 (СЗ) >10 км    10/8 360 м кучево-дожд., средняя 
[Cb calv|Ac und]
-1.5 -2.9 90 -4  1008.2  0.2  715  290           
00 04.01.10 020 (С) 4000 м  дымка  10/8 180 м кучево-дожд., средняя 
[Cb calv|Ac und]
-2.2 -3.1 93 -3  1008.6  0.3  722  294           
03 04.01.10 060 (СВ) 1700 м  слаб. ливневой снег{туман} [диам. гололёда 1 мм]  10/8 120 м кучево-дожд., средняя 
[Cb cap|Ac und]
-3 -3.4 97 -4  1008.7  -0.1  715  292        равномерный
сухой снег
100% 
06 04.01.10 030 (СВ) 0700 м  ливневой снег{туман} [диам. гололёда 1 мм]  ?/?  
-3.5 -4.3 94 -6  1009.8  0.9  716  292  -3.5    0.0     
09 04.01.10 040 (СВ) 3000 м  слаб. ливневой снег  10/8 100 м кучево-дожд., средняя 
[Cb cap|Ac und]
-4.2 -5.1 93 -8  1010  716  293           
12 04.01.10 030 (СВ) 0800 м  ливневой снег  10/8 100 м кучево-дожд., средняя 
[Cb cap|Ac und]
-4.8 -5.8 93 -9  1011  0.8  716  294           
15 04.01.10 050 (СВ) 1300 м  ливневой снег  10/8 120 м кучево-дожд., средняя 
[Cb cap|Ac und]
-5.3 -6.3 93 -7  1015.4  4.1  719  296           
18 04.01.10 050 (СВ) 10 км  слаб. ливневой снег  10/8 180 м кучево-дожд., средняя 
[Cb cap|Ac und]
-6.2 -7.4 91 -9  1017.2  1.5  720  298    -2.9  13     
21 04.01.10 050 (СВ) 10 км  {ливн. осадки}  10/8 180 м кучево-дожд., средняя 
[Cb calv|Ac und]
-6.4 -7.6 91 -8  1020.5  3.1  723  299           
00 05.01.10 150 (ЮВ) 3000 м  слаб. ливневой снег  10/8 120 м кучево-дожд., средняя 
[Cb cap|Ac und]
-6.3 -7.5 91 -6  1022.9  2.3  724  299           
03 05.01.10 030 (СВ) 1700 м  ливневой снег  10/8 120 м кучево-дожд., средняя 
[Cb cap|Ac und]
-6 -7.1 92 -6  1025.3  2.3  726  300        17  равномерный
сухой снег
100% 
06 05.01.10 320 (СЗ) >10 км  {ливн. осадки}  10/8 500 м кучево-дожд., средняя 
[Cb calv|Ac und]
-6.7 -7.9 91 -6  1027.5  1.9  728  301  -7.6       
09 05.01.10 140 (ЮВ) >10 км    8/5 420 м средняя 
[Sc diur, vesp|Ac trans]
-4.6 -5.9 91 -4  1027.2  0.3  728  299           
12 05.01.10 120 (ЮВ) >10 км    3/3 600 м средняя 
[Sc|Ac trans]
-6.1 -7.6 89 -8  1027.7  728  301           
15 05.01.10 150 (ЮВ) >10 км    5/0 средняя, верхняя 
[Ac trans|Ci fib]
-9.3 -10.5 91 -13  1029.5  1.1  729  305           
18 05.01.10 210 (ЮЗ) >10 км    3/0 средняя 
[Ac trans]
-7.5 -9.2 88 -10  1029.5  0.4  729  303    -4.5  0.0     
21 05.01.10 220 (ЮЗ) >10 км    ясно 
-6.1 -8 86 -9  1029.5  0.2  729  301           
00 06.01.10 180 (Ю) >10 км    1/0 средняя 
[Ac trans]
-6.3 -8.2 86 -9  1029.6  0.1  729  302           
03 06.01.10 150 (ЮВ) >10 км    8/0 средняя 
[Ac trans]
-5 -7.4 83 -7  1029.5  0.2  729  300        17  равномерный
сухой снег
100% 
06 06.01.10 150 (ЮВ) >10 км    6/3 600 м средняя 
[Sc|Ac trans]
-3.9 -7.2 78 -6  1030.1  0.8  730  299  -9.7         
09 06.01.10 110 (В) >10 км    6/0 средняя, верхняя 
[Ac trans|Ci fib]
-3 -8 68 -5  1028.7  -1.1  729  298           
12 06.01.10 120 (ЮВ) >10 км    6/0 верхняя 
[Ci fib]
-4.8 -7.6 81 -8  1028.7  -0.5  729  300           
15 06.01.10 120 (ЮВ) 4000 м  дымка  10/10 120 м 
[Sc]
-6 -6.8 94 -10  1028.3  -0.5  728  301           
18 06.01.10 130 (ЮВ) 4000 м  дымка  10/10 150 м 
[Sc]
-5.3 -6 95 -9  1027.9  -0.3  728  300    -2.9       
21 06.01.10 120 (ЮВ) >10 км    8/8 210 м 
[St]
-4.7 -6.4 88 -9  1025.3  -2.3  726  298           
00 07.01.10 110 (В) >10 км    10/5 300 м средняя 
[Sc|Ac und]
-4.5 -7.2 81 -9  1024  -1.2  725  298           
03 07.01.10 140 (ЮВ) >10 км    10/5 360 м средняя 
[Sc|Ac und]
-4 -5.5 89 -9  1024.8  -0.1  725  297        12  равномерный
сухой снег
100% 
06 07.01.10 130 (ЮВ) 10 км  позёмок  10/6 180 м средняя 
[St|Ac trans]
-3.8 -4.6 94 -9  1024.8  726  297  -6.1         
09 07.01.10 130 (ЮВ) 4000 м  метель{снег}  10/10 180 м 
[Ns]
-2.6 -3.6 93 -8  1024.7  0.2  726  296           
12 07.01.10 130 (ЮВ) 10 км  позёмок{снег}  10/10 240 м 
[Ns]
-1.9 -3.5 89 -7  1025.1  0.5  727  295           
15 07.01.10 130 (ЮВ) >10 км  позёмок  10/10 120 м 
[St]
-1.9 -3 92 -7  1025.9  0.7  727  295           
18 07.01.10 130 (ЮВ) >10 км  в посл. час переохл. осадки (гололёд){дождь} [диам. гололёда 4 мм]  10/6 360 м кучево-дожд., средняя 
[Cb cap|Ac und]
-1.2 -2.2 93 -5  1002.5  0.1  727  295    -1.5  0.0     
21 07.01.10 140 (ЮВ) >10 км  {ливн. осадки} [диам. гололёда 4 мм]  10/4 300 м кучево-дожд., средняя 
[Cb cap|Ac und]
-0.9 -2.2 91 -5  1025.9  0.1  727  294           
00 08.01.10 160 (Ю) >10 км  слаб. ливневой дождь [диам. гололёда 3 мм]  10/5 330 м кучево-дожд., средняя 
[Cb cap|Ac und]
-0.1 -1.8 88 -3  1026.1  0.4  728  293           
03 08.01.10 140 (ЮВ) >10 км  {ливн. осадки} [диам. гололёда 2 мм]  8/3 600 м кучево-дожд., средняя 
[Cb calv|Ac trans]
-0.1 -3.1 80 -4  1025.6  -0.5  727  293        11  неравномерный
мокрый или
старый снег
100% 
06 08.01.10 050 (СВ) >10 км  {ливн. осадки}  10/3 600 м кучево-дожд., средняя 
[Cb calv|Ac und]
+0.9 -2 81 1027.5  729  293  -1.9       
09 08.01.10 120 (ЮВ) 10 км  ливневой дождь  10/6 480 м кучево-дожд., средняя 
[Cb cap|Ac und]
+1.1 -0.3 90 -1  1028.1  0.6  729  293           
12 08.01.10 200 (Ю) >10 км  слаб. ливневой дождь  10/5 800 м кучево-дожд., средняя 
[Cb cap|Ac und]
+4.8 +2.6 86 +4  1028.1  0.8  730  289           
15 08.01.10 160 (Ю) >10 км  {ливн. осадки}  10/5 800 м средняя 
[Sc|Ac und]
+3.5 +2 90 +3  1030.2  1.7  731  290           
18 08.01.10 190 (Ю) >10 км  {ливн. осадки}  6/0 средняя 
[Ac trans]
+4.7 +3.5 92 +4  1031.1  1.1  732  289    +5.5     
21 08.01.10 180 (Ю) >10 км    3/0 средняя 
[Ac trans]
+4.9 +3.7 92 +6  1031.2  0.1  732  289           
00 09.01.10 140 (ЮВ) >10 км    3/0 средняя 
[Ac trans]
+3.3 +2.3 93 +1  1031.1  -0.4  732  291           
03 09.01.10 150 (ЮВ) >10 км    ясно 
+3.4 +0.8 83 +2  1031.3  0.2  732  291        мокрый или
старый снег
50-90% 
06 09.01.10 120 (ЮВ) >10 км    3/0 верхняя 
[Ci fib]
+3.7 +1.9 88 +2  1031  -0.2  732  291  +2.7         
09 09.01.10 130 (ЮВ) >10 км    6/0 верхняя 
[Ci fib]
+6.1 +0.5 67 +5  1028.8  -1.7  730  288           
12 09.01.10 120 (ЮВ) >10 км    8/0 средняя, верхняя 
[Ac trans|Ci fib]
+5.8 +0.4 68 +4  1027.1  -1.6  729  288           
15 09.01.10 120 (ЮВ) >10 км    10/0 средняя, верхняя 
[Ac trans|Ci fib]
+1.9 -0.9 82 1027.2  -0.7  729  292           
18 09.01.10 120 (ЮВ) >10 км    10/0 средняя, верхняя 
[Ac trans|Ci fib]
+0.2 -1.5 88 -2  1026.5  -1  728  293    +6.3       
21 09.01.10 130 (ЮВ) 10 км    10/3 200 м средняя 
[St|Ac und]
-0.9 -2.1 92 -4  1026.2  -0.5  728  294           
00 10.01.10 130 (ЮВ) 4000 м  дымка{туман} [диам. гололёда 1 мм]  8/8 210 м 
[St]
-0.2 -0.8 96 -3  1024  -1.9  726  293           
03 10.01.10 120 (ЮВ) >10 км    3/0 верхняя 
[Ci fib]
-0.6 -1.5 94 -2  1022.2  -1.8  725  293        мокрый или
старый снег
50-90% 
06 10.01.10 160 (Ю) >10 км    8/0 средняя 
[Ac trans]
+4 +0 75 +4  1021.7  -0.4  725  288  -1.3         
09 10.01.10 140 (ЮВ) >10 км    8/0 верхняя 
[Ci fib]
+10.6 +1.9 55 +12  1019.3  -1  724  281           
12 10.01.10 110 (В) >10 км    9/0 верхняя 
[Ci fib]
+6.5 +1.8 72 +6  1019.3  -0.8  724  284           
15 10.01.10 060 (СВ) 0600 м  туман  ?/?  
+1.4 +1.4 100 +1  1020.4  0.1  724  290           
18 10.01.10 000 (С) 0100 м  туман  1/0 
+0.4   1020.2  -0.4  723      +10.8       
21 10.01.10 130 (ЮВ) 0100 м  туман  ?/?  
+0.7 +0.7 100 -2  1018.3  -1.7  722  290           
00 11.01.10 100 (В) 0200 м  туман  ?/?  
+1.7 +1.7 100 -1  1016.7  -1.3  721  288           
03 11.01.10 100 (В) 0600 м  туман  ?/?  
+1.5 +1.5 100 -2  1015.4  -1.3  720  288        мокрый или
старый снег
10-40% 
06 11.01.10 120 (ЮВ) 10 км  {туман}  10/10 100 м 
[St]
+1.6 +0.8 94 -2  1015.3  -0.1  720  288  +0.1         
09 11.01.10 100 (В) >10 км    10/10 180 м 
[St]
+2.1 +1.3 95 -1  1013.3  -1.7  719  287           
12 11.01.10 000 (С) 18  0700 м    10/10 100 м 
[St]
+0.7   1011.6  -1.7  718             
15 11.01.10 120 (ЮВ) 0300 м  туман  ?/?  
+0.8 +0.8 100 -2  1013.3  1.4  719  289           
18 11.01.10 110 (В) 0200 м  туман  ?/?  
-0.1 -0.1 100 -3  1014.4  0.9  719  290    +2.3       
21 11.01.10 140 (ЮВ) 0200 м  туман  ?/?  
-0.4 -0.4 100 -3  1016.3  1.6  721  291           
00 12.01.10 140 (ЮВ) 0900 м  туман  ?/?  
-0.3 -0.3 100 -3  1017.4  721  291           
03 12.01.10 210 (ЮЗ) 10 км  {туман}  10/6 330 м кучево-дожд., средняя 
[Cb calv|Ac und]
+0.8 +0.3 96 +1  1017.2  0.2  721  290        мокрый или
старый снег
10-40% 
06 12.01.10 260 (З) >10 км  {ливн. осадки, туман}  6/3 600 м кучево-дожд., средняя 
[Cb cap|Ac trans]
+2.1   1019.1  723    -0.5         
09 12.01.10 280 (З) >10 км    4/1 600 м средняя, верхняя 
[Cu hum|Ac trans|Ci sp]
+8.2 +2.3 66 +7  1017.8  723  282           
12 12.01.10 300 (СЗ) >10 км    8/4 600 м кучево-дожд., верхняя 
[Cb calv|Ci sp]
+9 +1.7 60 +8  1017.4  -0.2  723  282           
15 12.01.10 050 (СВ) >10 км    4/3 1000 м средняя 
[Sc diur, vesp|Ac trans]
+4.6 +2.6 87 +3  1018.2  -0.1  723  286           
18 12.01.10 060 (СВ) 10 км  местами туман поземный  6/0 средняя 
[Ac trans]
+2.7 +1.7 93 +3  1018.7  0.1  723  288    +9.7  0.3     
21 12.01.10 190 (Ю) >10 км  {туман}  3/0 средняя 
[Ac trans]
+1.6 +0.2 91 +1  1018.2  -0.8  722  289           
00 13.01.10 170 (Ю) >10 км  {туман}  10/3 1000 м средняя 
[Sc|Ac und]
+2.8 +0.4 84 +2  1017.3  -0.5  722  288           
03 13.01.10 130 (ЮВ) >10 км    4/0 средняя 
[Ac trans]
+0.7 -0.7 90 -2  1016.7  -1  721  290           
06 13.01.10 130 (ЮВ) 0400 м  туман  6/0 средняя 
[Ac trans]
+0.2 +0.2 100 -2  1016.7  -0.1  721  290  -1.2        замёрзшая 
09 13.01.10 120 (ЮВ) >10 км  {туман}  6/3 200 м верхняя 
[St|Ci fib]
+4.8 +3.3 90 +3  1015.3  -0.4  721  285           
12 13.01.10 140 (ЮВ) >10 км  {туман}  6/3 300 м верхняя 
[Sc|Ci fib]
+7 +2.1 71 +5  1013.8  -1.1  720  282           
15 13.01.10 120 (ЮВ) >10 км    8/0 верхняя 
[Ci fib]
+1.6 -0.3 87 -1  1015.3  0.4  720  288           
18 13.01.10 120 (ЮВ) 0600 м  туман [диам. гололёда 1 мм]  3/3 180 м 
[St]
-0.5 -0.5 100 -3  1015.7  720  291    +7.2       
21 13.01.10 140 (ЮВ) 0500 м  туман  5/5 180 м 
[St]
+0.3 +0.3 100 -3  1015.6  0.1  720  290           
00 14.01.10 120 (ЮВ) 1300 м  дымка{туман}  10/10 210 м 
[St]
+0.2 -0.1 98 -3  1015.3  -0.3  720  290           
03 14.01.10 150 (ЮВ) 2000 м  дымка  10/10 210 м 
[St]
+0.1 -0.5 96 -3  1015  -0.4  720  290           
06 14.01.10 120 (ЮВ) 4000 м  дымка  10/10 120 м 
[St]
+0.5 -0.6 92 -3  1016.1  1.1  721  290  -0.6         
09 14.01.10 110 (В) >10 км    10/8 300 м средняя 
[Sc|Ac und]
+1.5 -0.5 86 -2  1015.8  -0.1  720  289           
12 14.01.10 120 (ЮВ) >10 км    10/8 270 м средняя 
[St|Ac und]
+1.6 -0.6 85 -1  1016  0.2  721  289           
15 14.01.10 110 (В) >10 км  в посл. час снег{дождь}  10/10 180 м 
[Ns]
+0.9 -0.2 92 -2  1016.2  0.1  721  289           
18 14.01.10 000 (С) 0700 м  {снег, дождь}  6/6 180 м средняя 
[St|Ac und]
-0.5   1017.1  0.8  721      +2.1  0.6     
21 14.01.10 120 (ЮВ) >10 км    10/6 240 м средняя 
[St|Ac und]
+0.1 -0.5 96 -3  1017.3  0.1  721  291           
00 15.01.10 120 (ЮВ) >10 км    10/5 270 м средняя 
[St|Ac und]
+0 -0.8 94 -2  1017.8  1.5  722  291           
03 15.01.10 120 (ЮВ) 4000 м  дымка{дождь}  10/10 180 м 
[Ns]
-0.2 -1.1 94 -4  1018.1  0.2  722  291           
06 15.01.10 120 (ЮВ) 0300 м  слаб. снег{дождь}  ?/?  
-0.2 -0.2 100 -2  1019.8  1.6  723  291  -0.3    0.4     
09 15.01.10 110 (В) 0200 м  слаб. снег{туман}  ?/?  
-0.5 -0.5 100 -3  1020.5  0.6  724  292           
12 15.01.10 120 (ЮВ) 0600 м  слаб. снег{туман}  ?/?  
-0.5 -0.5 100 -4  1020.4  -0.1  723  292           
15 15.01.10 120 (ЮВ) 4000 м  дымка{снег, туман}  10/10 100 м 
[St]
-0.3 -0.9 96 -3  1021  0.7  724  292           
18 15.01.10 130 (ЮВ) 10 км  {снег, туман}  10/10 120 м 
[St]
-0.4 -1 96 -3  1022.6  1.4  725  293    +0     
21 15.01.10 120 (ЮВ) 0700 м  туман  ?/?  
-0.4 -0.4 100 -3  1023  0.4  725  293           
00 16.01.10 130 (ЮВ) 1200 м  слаб. переохл. дождь (гололёд){туман} [диам. гололёда 1 мм]  10/10 100 м 
[St]
-0.3 -0.9 96 -2  1023.7  0.7  726  293           
03 16.01.10 060 (СВ) 0200 м  слаб. переохл. дождь (гололёд){туман}  ?/?  
-0.2 -0.2 100 -1    727  293           
06 16.01.10 090 (В) 0400 м  снег{дождь} [диам. гололёда 1 мм]  ?/?  
-0.5 -0.5 100 -2  1026.5  1.4  728  294  -0.6    0.8     
09 16.01.10 080 (В) 1200 м  [диам. гололёда 1 мм]  10/10 100 м 
[Ns]
-0.8 -1.2 97 -3  1027.5  729  294           
12 16.01.10 090 (В) 2000 м  снег{туман} [диам. гололёда 1 мм]  10/10 150 м 
[Ns]
-2.2 -2.8 96 -6  1028.6  0.7  729  296           
15 16.01.10 090 (В) 1200 м  снег [диам. гололёда 1 мм]  10/10 100 м 
[Ns]
-3.4 -3.8 97 -8  1030.8  1.7  730  298           
18 16.01.10 080 (В) 2000 м  снег [диам. гололёда 1 мм]  10/10 150 м 
[Ns]
-4.2 -5.1 93 -8  1033.5  2.4  732  300    -0  10     
21 16.01.10 080 (В) 2500 м  метель{снег} [диам. гололёда 1 мм]  10/10 100 м 
[Ns]
-6.5 -7.3 94 -11  1034.6  0.6  733  303           
00 17.01.10 070 (В) 2000 м  метель{снег} [диам. гололёда 1 мм]  10/10 100 м 
[Ns]
-7.5 -8.4 93 -12  1035.3  0.5  733  305           
03 17.01.10 080 (В) 3000 м  слаб. снег [диам. гололёда 1 мм]  10/10 120 м 
[Ns]
-8.1 -9.5 90 -13  1036.5  0.9  734  306        13  неравномерный
сухой снег
100% 
06 17.01.10 080 (В) 4000 м  слаб. снег [диам. гололёда 1 мм]  10/10 150 м 
[Ns]
-8.6 -10.1 89 -14  1037.9  1.2  735  307  -8.9    0.7     
09 17.01.10 090 (В) 10 км  позёмок{снег} [диам. гололёда 1 мм]  10/10 240 м 
[Ns]
-7.1 -8.8 88 -12  1037.7  0.1  735  305           
12 17.01.10 090 (В) 10 км  позёмок{снег} [диам. гололёда 1 мм]  10/10 150 м 
[Ns]
-7.2 -9.3 85 -11  1037.3  -0.3  734  305           
15 17.01.10 100 (В) 10 км  позёмок [диам. гололёда 1 мм]  10/10 210 м 
[Ns]
-8.2 -9.6 89 -13  1037.9  0.3  735  306           
18 17.01.10 100 (В) 10 км  позёмок [диам. гололёда 1 мм]  10/10 240 м 
-7.4 -8.7 90 -12  1037.2  -0.4  734  305    -7.1  0.0     
21 17.01.10 100 (В) 10 км  позёмок [диам. гололёда 1 мм]  10/10 210 м 
[Ns]
-6.5 -7.7 91 -12  1036.9  -1.1  734  304           
00 18.01.10 100 (В) 10 км  позёмок [диам. гололёда 1 мм]  10/10 150 м 
[Ns]
-7.2 -8.5 90 -12  1036.2  -0.8  733  304           
03 18.01.10 100 (В) >10 км  позёмок [диам. гололёда 1 мм]  10/10 210 м 
[Ns]
-7.2 -8.5 90 -13  1034.3  -0.9  732  304        13  неравномерный
сухой снег
100% 
06 18.01.10 100 (В) 10 км  позёмок [диам. гололёда 1 мм]  10/8 150 м средняя 
[St|Ac und]
-7.3 -8.6 90 -13  1034.1  -0.2  732  304  -8.3         
09 18.01.10 100 (В) 10 км    10/6 150 м средняя 
[St|Ac und]
-6.8 -8 91 -12  1032.9  -1  731  303           
12 18.01.10 100 (В) 10 км    10/6 210 м средняя 
[St|Ac und]
-6.2 -7.4 91 -12  1031.4  -1.3  730  302           
15 18.01.10 110 (В) 10  >10 км  позёмок  10/6 330 м средняя 
[Sc|Ac und]
-6.1 -7.2 92 -12  1031  -0.3  730  302           
18 18.01.10 090 (В) 10  10 км  позёмок  10/8 270 м средняя 
[St|Ac und]
-6 -7.1 92 -12  1029.1  -1.8  729  301    -6.1       
21 18.01.10 080 (В) 10 км  позёмок  10/8 300 м средняя 
[Sc|Ac und]
-6.3 -7.5 91 -12  1027.2  -1.9  727  301           
00 19.01.10 090 (В) 4000 м  метель  10/10 400 м 
[Ns]
-6.6 -7.8 91 -12  1025.7  -1.5  726  301           
03 19.01.10 080 (В) 10  10 км  позёмок  10/8 300 м средняя 
[St|Ac und]
-6 -7.5 89 -12  1023.8  -1.6  725  299        25  очень
неравномерный
сухой снег
(сугробы, заносы) 
06 19.01.10 080 (В) 10  1200 м  метель  10/8 100 м средняя 
[St|Ac und]
-5.6 -6.8 91 -12  1023  -0.6  725  299  -6.9         
09 19.01.10 080 (В) 11  1100 м  метель  10/10 100 м 
[St]
-5.5 -6.6 92 -12  1021.1  1.8  723  298           
12 19.01.10 080 (В) 10  1000 м  метель  10/10 100 м 
[St]
-6.2 -7.4 91 -13  1020.3  -1  722  299           
15 19.01.10 070 (В) 10  1200 м  метель  10/10 120 м 
[St]
-7 -8.3 90 -14  1021.7  1.2  723  300           
18 19.01.10 080 (В) 2000 м  метель  10/10 180 м 
[St]
-7.7 -9.1 90 -14  1022.1  0.2  724  301    -5.3       
21 19.01.10 090 (В) 4000 м  метель  10/10 180 м 
[St]
-8 -9.1 92 -14  1022.1  724  301           
00 20.01.10 090 (В) 10 км  позёмок  10/10 240 м 
[St]
-8 -9.1 92 -14  1021.7  -0.4  723  301           
03 20.01.10 100 (В) 10 км  позёмок  10/10 210 м 
[St]
-7.4 -8.7 90 -12  1021.5  723  300        25  очень
неравномерный
сухой снег
(сугробы, заносы) 
06 20.01.10 090 (В) 10 км  позёмок  10/10 120 м 
[St]
-7.1 -8.8 88 -12  1022.3  0.7  724  300  -8.2         
09 20.01.10 110 (В) 10 км  позёмок  10/10 150 м 
[St]
-5.3 -6.7 90 -11  1021.1  -0.7  723  298           
12 20.01.10 100 (В) 10 км  {морось}  10/10 240 м 
[St]
-4 -5.2 91 -9    -0.1  723  296           
15 20.01.10 110 (В) 10  10 км    10/10 120 м кучево-дожд. 
[Cb cap]
-4.3 -5.5 91 -10  1021.4  0.4  724  297           
18 20.01.10 100 (В) 10 км    10/10 100 м 
[St]
-4.9 -5.9 93 -10  1021.5  -0.1  724  297    -4       
21 20.01.10 100 (В) 10 км    10/10 120 м 
[St]
-5.3 -6.3 93 -11  1021.7  0.1  724  298           
00 21.01.10 090 (В) 10 км    10/10 150 м 
[St]
-6 -7.1 92 -12  1021.9  0.1  724  299           
03 21.01.10 100 (В) 10 км    10/10 120 м 
[St]
-6.8 -8 91 -13  1021.8  -0.3  723  300        28  очень
неравномерный
сухой снег
(сугробы, заносы) 
06 21.01.10 100 (В) 10 км    10/10 100 м 
[St]
-7 -8.3 90 -13  1022.2  0.4  724  300  -7.3         
09 21.01.10 090 (В) 10 км  позёмок  10/8 210 м средняя 
[St|Ac trans]
-7.1 -8.4 91 -13  1021.9  -0.4  723  300           
12 21.01.10 100 (В) 10 км  позёмок  10/10 270 м 
[St]
-7.6 -8.9 90 -13  1022  723  301           
15 21.01.10 090 (В) 10 км    10/10 300 м 
[Sc]
-9.1 -10.6 89 -16  1023.3  0.9  724  303           
18 21.01.10 080 (В) 2000 м  метель  10/10 180 м 
[St]
-7.7 -9.1 90 -14  1022.1  0.2  724  301    -5.3       
21 21.01.10 090 (В) 4000 м  метель  10/10 180 м 
[St]
-8 -9.1 92 -14  1022.1  724  301           
00 22.01.10 110 (В) >10 км  позёмок{снег}  10/6 570 м кучево-дожд., средняя 
[Cb cap|Ac und]
-9.8 -11.5 87 -16  1024.7  0.3  725  304           
03 22.01.10 090 (В) >10 км    10/6 300 м кучево-дожд., средняя 
[Cb calv|Ac und]
-9.4 -10.6 91 -15  1024.6  725  304        31  очень
неравномерный
сухой снег
(сугробы, заносы) 
06 22.01.10 090 (В) 10 км    10/8 300 м кучево-дожд., средняя 
[Cb calv|Ac und]
-8.2 -9.6 89 -13  1025.6  1.2  726  302  -9.8       
09 22.01.10 090 (В) >10 км    10/6 300 м средняя 
[Sc|Ac und]
-7.2 -8.5 90 -11  1025.6  0.2  726  301           
12 22.01.10 070 (В) >10 км    10/6 210 м средняя 
[St|Ac und]
-6.3 -7.5 91 -10  1025.5  0.1  726  300           
15 22.01.10 100 (В) >10 км    10/4 300 м кучево-дожд., средняя 
[Cb calv|Ac und]
-6.7 -7.9 91 -9  1026.2  0.6  727  301           
18 22.01.10 130 (ЮВ) >10 км    10/4 600 м средняя 
[Sc|Ac und]
-6 -7.5 89 -7  1026.2  0.2  727  300    -6       
21 22.01.10 130 (ЮВ) >10 км    10/4 600 м средняя 
[Sc|Ac und]
-5.3 -7.1 87 -7  1025.7  -0.4  726  299           
00 23.01.10 060 (СВ) >10 км    8/4 600 м средняя 
[Sc|Ac trans]
-6.6 -8.2 88 -6  1025  -1  726  300           
03 23.01.10 100 (В) 10 км    5/0 средняя 
[Ac trans]
-10.9 -12.2 90 -15  1024.8  -1  725  305        29  очень
неравномерный
сухой снег
(сугробы, заносы) 
06 23.01.10 110 (В) 10 км    10/6 150 м средняя 
[St|Ac und]
-8.9 -10.4 89 -13  1024.4  725  303  -11.2         
09 23.01.10 100 (В) 10 км    10/6 240 м средняя 
[St|Ac und]
-8 -9.8 87 -12  1023.2  -0.9  724  302           
12 23.01.10 100 (В) 10 км    10/8 180 м средняя 
[St|Ac und]
-9 -10.6 88 -14  1021.5  -1.8  723  302           
15 23.01.10 100 (В) 10 км    10/8 240 м средняя 
[St|Ac und]
-9.4 -10.6 91 -15  1022.1  0.5  723  303           
18 23.01.10 090 (В) 4000 м  слаб. ливневой снег  10/8 100 м кучево-дожд., средняя 
[Cb cap|Ac und]
-10.2 -11.6 89 -16  1021.9  -0.4  723  304    -8       
21 23.01.10 100 (В) 2000 м  слаб. ливневой снег  10/8 120 м кучево-дожд., средняя 
[Cb cap|Ac und]
-9.7 -10.9 91 -15  1020.6  -1.1  722  303           
00 24.01.10 090 (В) 10 км  позёмок{ливн. осадки}  10/8 210 м кучево-дожд., средняя 
[Cb calv|Ac und]
-10.3 -11.6 90 -16  1019.6  -1.1  721  303           
03 24.01.10 080 (В) 4000 м  слаб. ливневой снег  10/8 180 м кучево-дожд., средняя 
[Cb cap|Ac und]
-10.8 -12.1 90 -15  1018.5  -1.1  721  303        31  очень
неравномерный
сухой снег
(сугробы, заносы) 
06 24.01.10 080 (В) 4000 м  слаб. ливневой снег  10/8 180 м кучево-дожд., средняя 
[Cb cap|Ac und]
-11.2 -12.5 90 -15  1019.6  0.9  721  304  -11.7    0.5     
09 24.01.10 110 (В) 10 км  {ливн. осадки}  10/8 450 м средняя 
[Sc|Ac und]
-10.3 -11.6 90 -16  1019.5  0.1  721  303           
12 24.01.10 100 (В) >10 км  {ливн. осадки}  10/6 540 м средняя 
[Sc|Ac und]
-9.3 -10.5 91 -13  1018.6  -0.6  721  302           
15 24.01.10 050 (СВ) >10 км    10/8 420 м средняя 
[Sc|Ac und]
-8.9 -10.4 89 -9  1019.7  1.1  722  302           
18 24.01.10 100 (В) 82  2000 м  ливневой снег  8/8 120 м кучево-дожд., средняя 
[Cb cap|Ac und]
-9.2   1021  1.3  723      -7.7  0.0     
21 24.01.10 320 (СЗ) 10 км  слаб. ливневой снег  10/8 210 м кучево-дожд., средняя 
[Cb cap|Ac und]
-10.9 -12.2 90 -15  1022.4  0.9  723  305           
00 25.01.10 310 (СЗ) 10 км  слаб. ливневой снег  10/8 240 м кучево-дожд., средняя 
[Cb cap|Ac und]
-12.7 -14.8 84 -17  1023.4  0.5  724  307           
03 25.01.10 320 (СЗ) 3000 м  слаб. ливневой снег  10/8 300 м кучево-дожд., средняя 
[Cb cap|Ac und]
-14.7 -16.7 85 -18  1014  0.1  724  310        32  очень
неравномерный
сухой снег
(сугробы, заносы) 
06 25.01.10 310 (СЗ) 4000 м  слаб. ливневой снег  10/8 330 м кучево-дожд., средняя 
[Cb cap|Ac und]
-14.5 -16.5 85 -18  1024.7  0.6  724  309  -15.1    0.7     
09 25.01.10 300 (СЗ) 2000 м  слаб. ливневой снег  10/8 500 м кучево-дожд., средняя 
[Cb cap|Ac und]
-14.3 -16.3 85 -18  1024.8  0.2  724  309           
12 25.01.10 300 (СЗ) 1500 м  слаб. ливневой снег  10/8 180 м кучево-дожд., средняя 
[Cb cap|Ac und]
-15 -17 85 -20  1024.8  -0.2  724  310           
15 25.01.10 280 (З) 1500 м  слаб. ливневой снег  10/8 150 м кучево-дожд., средняя 
[Cb cap|Ac und]
-16.2 -18.1 85 -22  1026.8  1.7  725  312           
18 25.01.10 290 (З) 1800 м  ливневой снег  10/8 100 м кучево-дожд., средняя 
[Cb cap|Ac und]
-17.4 -19.3 85 -23  1028.5  1.2  726  314    -14.3  25     
21 25.01.10 290 (З) >10 км  в посл. час ливневой снег  8/6 330 м кучево-дожд., средняя 
[Cb calv|Ac trans]
-18.1 -20 85 -25  1029.4  0.8  727  315           
00 26.01.10 280 (З) 10 км  позёмок{ливн. осадки}  6/4 300 м кучево-дожд., средняя 
[Cb calv|Ac trans]
-18.1 -20.7 80 -26  1030.3  0.9  728  316           
03 26.01.10 270 (З) 4000 м  слаб. ливневой снег  8/4 360 м кучево-дожд., средняя 
[Cb cap|Ac trans]
-19 -21.6 80 -27  1032  1.3  729  317        32  очень
неравномерный
сухой снег
(сугробы, заносы) 
06 26.01.10 260 (З) 10 км  позёмок{ливн. осадки}  4/0 средняя 
[Ac trans]
-17.9 -19.7 86 -25  1034.1  2.2  730  316  -19.3    0.3     
09 26.01.10 270 (З) 10 км  позёмок  4/0 средняя 
[Ac trans]
-14.5 -17.2 80 -21  1034  0.7  731  312           
12 26.01.10 270 (З) 10 км  позёмок  3/0 средняя 
[Ac trans]
-14.2 -16.9 80 -20  1035.1  1.1  732  312           
15 26.01.10 270 (З) >10 км    3/0 средняя 
[Ac trans]
-16.6 -20.8 70 -22  1038  733  316           
18 26.01.10 280 (З) >10 км    3/0 средняя 
[Ac trans]
-16.8 -21.8 65 -23  1038.7  0.9  734  317    -14.2       
21 26.01.10 290 (З) >10 км    3/0 средняя 
[Ac trans]
-16.6 -20.8 70 -22  1038.9  0.2  734  316           
00 27.01.10 300 (СЗ) >10 км    3/0 средняя 
[Ac trans]
-16.9 -21.1 70 -23  1039.3  0.2  734  317           
03 27.01.10 290 (З) >10 км    ясно 300 м 
-17.8 -21.9 70 -25  1039.6  0.2  734  318        43  очень
неравномерный
сухой снег
(сугробы, заносы) 
06 27.01.10 270 (З) >10 км    ясно 
-16.1 -21.2 65 -23  1039.1  -0.1  734  316  -18.1         
09 27.01.10 300 (СЗ) >10 км    3/0 средняя 
[Ac trans]
-12.2 -23.1 40 -16  1037.1  -1  733  311           
12 27.01.10 320 (СЗ) >10 км    3/0 средняя 
[Ac trans]
-10.6 -19 50 -12  1024.2  -2.4  732  308           
15 27.01.10 240 (ЮЗ) >10 км    ясно 
-13.8 -18.1 70 -16  1033.3  -1.5  731  311           
18 27.01.10 310 (СЗ) >10 км    ясно 
-14.1 -18.4 70 -16  1032.2  -1.2  730  311    -10.3       
21 27.01.10 200 (Ю) >10 км    ясно верхняя 
[Ci fib]
-16.5 -19.9 75 -17  1029.6  -3  727  313           
00 28.01.10 130 (ЮВ) >10 км    3/0 
-15 -19.2 70 -15  1024.9  -4.1  724  310           
03 28.01.10 160 (Ю) >10 км    9/0 
-15.5 -18.9 75 -19  1022.2  -2.6  722  310        42  очень
неравномерный
сухой снег
(сугробы, заносы) 
06 28.01.10 120 (ЮВ) >10 км    10/0 средняя 
[Ac und]
-13.1 -17.4 70 -15  1018.9  -2.6  720  306  -17         
09 28.01.10 140 (ЮВ) >10 км    10/0 средняя 
[Ac und]
-9.8 -15.7 62 -12  1015.6  -2.3  719  302           
12 28.01.10 130 (ЮВ) >10 км    10/3 1000 м средняя 
[Sc|Ac und]
-10.6 -15 70 -12  1014.7  -1.1  718  302           
15 28.01.10 160 (Ю) >10 км    10/3 1000 м средняя 
[Sc|Ac und]
-10.7 -14.3 75 -14  1014.6  -0.1  718  302           
18 28.01.10 130 (ЮВ) >10 км    10/3 1000 м средняя 
[Sc|Ac und]
-10.1 -14.5 70 -14  1013.4  -1  717  301    -9.8       
21 28.01.10 160 (Ю) >10 км    6/0 средняя 
[Ac trans]
-7.7 -16.1 51 -11  1012.5  -0.4  717  298           
00 29.01.10 160 (Ю) >10 км    3/0 средняя 
[Ac trans]
-9.8 -16.3 59 -15  1011.5  -1.3  716  300           
03 29.01.10 160 (Ю) >10 км    8/0 средняя 
[Ac trans]
-7.9 -14.6 59 -12  1010.9  -0.2  716  298        42  очень
неравномерный
сухой снег
(сугробы, заносы) 
06 29.01.10 140 (ЮВ) >10 км    8/0 средняя 
[Ac trans]
-4.2 -13.7 48 -7  1010.6  0.4  716  294  -10.8         
09 29.01.10 150 (ЮВ) >10 км    10/0 средняя 
[Ac und]
-3.3 -12.2 50 -7  1009.3  -1  715  293           
12 29.01.10 120 (ЮВ) >10 км    9/0 средняя 
[Ac trans]
-2.3 -10 55 -5  1007.3  -1.7  714  291           
15 29.01.10 130 (ЮВ) >10 км    10/0 средняя 
[Ac und]
-6.7 -13.3 59 -11  1007.5  -0.7  713  296           
18 29.01.10 110 (В) >10 км    10/0 средняя 
[Ac und]
-6.6 -12.7 62 -11  1007.5  713  296    -2.2       
21 29.01.10 130 (ЮВ) >10 км    10/0 средняя 
[Ac und]
-5.7 -10.4 69 -10  1007.8  0.5  714  295           
00 30.01.10 110 (В) >10 км    8/0 средняя 
[Ac trans]
-5.3 -9.9 70 -7  1008.3  0.6  714  294           
03 30.01.10 090 (В) >10 км    6/0 средняя 
[Ac trans]
+2.8 -4.1 60 +4  1008.1  1.4  715  286        40  очень
неравномерный
сухой снег
(сугробы, заносы) 
06 30.01.10 310 (СЗ) >10 км    9/0 средняя 
[Ac trans]
+3.1 -1.7 71 +1  1010.8  2.6  717  286  -7.2         
09 30.01.10 350 (С) >10 км    9/0 средняя 
[Ac trans]
+2.2 -0.8 81 +1  1012.8  1.8  719  287           
12 30.01.10 080 (В) 10 км    10/5 180 м средняя 
[St|Ac und]
+2.4 -0 84 +3  1014.1  1.3  719  287           
15 30.01.10 120 (ЮВ) 10 км    10/10 240 м 
[St]
+0.8 -2.1 81 -1  1015.4  0.9  720  289           
18 30.01.10 140 (ЮВ) >10 км    4/0 средняя 
[Ac trans]
+0.3 -3 79 -3  1016  0.4  720  290    +3.3       
21 30.01.10 160 (Ю) >10 км    3/0 средняя 
[Ac trans]
-0.5 -3.6 79 -3  1015.7  -0.4  720  291           
00 31.01.10 160 (Ю) >10 км    ясно 
-3.8 -5 91 -6  1016.3  -0.2  720  295           
03 31.01.10 160 (Ю) >10 км    3/0 средняя 
[Ac trans]
-5.7 -7.1 90 -9  1017.7  721  297        38  очень
неравномерный
сухой снег
(сугробы, заносы) 
06 31.01.10 140 (ЮВ) >10 км    3/3 300 м 
[Sc]
-5.4 -7.2 87 -9  1017.3  -0.3  721  297  -5.8         
09 31.01.10 110 (В) >10 км    3/3 300 м 
[Sc]
-0.4 -2.5 86 -3  1015.5  -0.7  720  291           
12 31.01.10 110 (В) 3000 м  дымка  10/8 100 м средняя 
[St|Ac und]
-1.2 -2.2 93 -5  1014.7  -0.9  719  291           
15 31.01.10 140 (ЮВ) 10 км    10/8 100 м средняя 
[St|Ac und]
-2.1 -3 94 -5  1014.5  -0.4             
18 31.01.10 130 (ЮВ) 0700 м  туман  3/0 средняя 
[Ac trans]
-5 -5 100 -8  1014.6  -0.4  719  295    -0.2       
21 31.01.10 150 (ЮВ) 0500 м  туман  6/6 150 м 
[St]
-4.3 -4.9 96 -8  1014.2  -0.3  719  295           
00 01.02.10 150 (ЮВ) 10 км  {туман}  4/0 средняя 
[Ac trans]
-4.2 -5.1 93 -8  1013.5  -0.7  718  294           
03 01.02.10 150 (ЮВ) 10 км    8/0 средняя 
[Ac trans]
-3.8 -5 91 -7  1012.7  -0.7  717  294        37  очень
неравномерный
сухой снег
(сугробы, заносы) 
Время (UTC), дата Ветер
(°,м/с) 
Видим.   Явления Облачность Т
(°С)
Тd
(°С)
f(%) Тe
(°С)
Pmin
(гПа)
dP
(гПа)
Po
(мм)
O2
(г/м3)
Тmin Tmax R s Состояние
почвы